Regional Weather Roundup
Issued by NWS

Home | Current Version | Previous Version | Graphics & Text | Print | Product List | Glossary On
Versions: 1 2 3 4 5 6 7 8 9 10 11 12 13 14 15 16 17 18 19 20 21 22 23 24 25 26 27
000
ASUS45 KTFX 090710
RWRMT
MONTANA REGIONAL WEATHER ROUNDUP
NATIONAL WEATHER SERVICE GREAT FALLS MT
1200 AM MST FRI DEC 09 2016

NOTE: "FAIR" INDICATES FEW OR NO CLOUDS BELOW 12000 FEET WITH NO
SIGNIFICANT WEATHER AND/OR OBSTRUCTIONS TO VISIBILITY.

MTZ001>007-043-090800-
WEST OF THE DIVIDE

CITY           SKY/WX    TMP DP  RH WIND       PRES   REMARKS
KALISPELL      PTCLDY     5  -6  60 N20       30.21R WCI -15
MISSOULA       LGT SNOW  13   8  81 N5        30.17R
BUTTE          LGT SNOW   6   0  76 S9        29.99R WCI  -8
MULLAN PASS    LGT SNOW   2  -2  83 VRB7G21   29.87F FOG     WCI -11
ANACONDA         N/A     10   3  72 SE7       30.01R WCI   0
DEER LODGE       N/A      3  -2  78 NW9       30.07R WCI -11
EUREKA           N/A     -9 -15  77 CALM      30.29R
HAMILTON         N/A     14   9  79 N3        30.11R
LIBBY            N/A      7   1  78 CALM      30.25R
PLAINS           N/A     15   5  64 N1        30.21R
RONAN            N/A     12   5  73 N7        30.18R WCI   1
THOMPSON FALLS   N/A     16   9  74 NE5       30.22R
$$

MTZ008-052>055-090800-
SOUTHWEST MONTANA

CITY           SKY/WX    TMP DP  RH WIND       PRES   REMARKS
BOZEMAN        LGT SNOW   7   3  84 CALM      30.11F FOG
DILLON         LGT SNOW   6   2  83 NE7       30.01S FOG     WCI  -6
W YELLOWSTONE  LGT SNOW   7   3  85 CALM      30.00F
ENNIS          CLOUDY     7   3  85 NW7       30.06R FOG     WCI  -5
THREE FORKS      N/A      5 -33  15 CALM      30.11F
$$

MTZ009-010-012-014-046-048-049-054-090800-
EAST SLOPES AND CENTRAL MONTANA

CITY           SKY/WX    TMP DP  RH WIND       PRES   REMARKS
CUT BANK       CLOUDY    -4  -8  83 E6        30.29S WCI -16
GREAT FALLS    CLOUDY    -3  -8  79 NE5       30.30S
MALMSTROM AFB  FLURRIES  -3  -6  87 N7        30.33S WCI -16
HELENA         LGT SNOW   1  -5  75 W6        30.22F WCI -10
AUGUSTA        FLURRIES  -5  -8  85 E3        30.21S
BOWMANS CRNR   FLURRIES  -6  -9  86 NE6       30.20S WCI -18
CHOTEAU          N/A     -2  -8  78 MISG      30.29S
CONRAD           N/A     -3  -7  83 N5        30.29F
FAIRFIELD      FLURRIES  -5 -10  81 E3        30.27F
POWER          FLURRIES  -6 -10  81 E3        30.29S
RAYNESFORD     FLURRIES  -4  -9  81 W6        30.26S WCI -17
ULM            FLURRIES  -3  -8  82 N6        30.31S WCI -15
$$

MTZ011-013-016-021-045-047-050-051-090800-
NORTH CENTRAL MONTANA

CITY           SKY/WX    TMP DP  RH WIND       PRES   REMARKS
HAVRE          CLOUDY     0  -5  79 NE7       30.45S WCI -13
LEWISTOWN      CLOUDY    -3  -8  79 E8        30.22F WCI -18
N BAR RANCH    MOCLDY    -6 -13  71 CALM      30.22F
CHINOOK          N/A      1  -6  71 E3        30.48S
DENTON         MOCLDY    -3  -6  86 MISG      30.26F
GEYSER         FLURRIES  -2  -6  84 NE7       30.24F WCI -16
GRASS RANGE    MOCLDY    -4  -7  86 NE2       30.25S
JUDITH GAP     CLOUDY     0  -4  82 MISG      30.16S
ROY              N/A     -5  -8  85 MISG      30.30S
STANFORD       FLURRIES  -3  -6  87 N6        30.20S WCI -16
WINIFRED       MOCLDY    -3  -6  87 MISG      30.28S
$$

MTZ017>020-022>027-061-062-090800-
NORTHEAST MONTANA

CITY           SKY/WX    TMP DP  RH WIND       PRES   REMARKS
GLASGOW        CLEAR     -6 -11  79 E9        30.49F WCI -23
JORDAN           N/A     -1  -6  79 E7        30.43F WCI -14
SIDNEY         CLOUDY   -15 -20  78 N3        30.57S
WOLF POINT     CLOUDY   -12 -19  71 E3        30.57S
PLENTYWOOD       N/A    -11 -15  84 CALM      30.52F
POPLAR           N/A    -13 -18  77 CALM      30.58S
SCOBEY           N/A     -7 -17  61 CALM      30.45S
$$

MTZ028>42-056>058-090800-
SOUTHCENTRAL AND SOUTHEAST MONTANA

CITY           SKY/WX    TMP DP  RH WIND       PRES   REMARKS
BAKER          CLOUDY   -14 -19  79 E6        30.41F WCI -28
BILLINGS       CLOUDY     2  -3  80 N7        30.26S WCI -11
LIVINGSTON     LGT SNOW   4  -2  76 E13       30.14R WCI -13
MILES CITY     CLOUDY    -4 -10  75 NE10      30.42F WCI -21
BIG TIMBER     CLOUDY     3   0  85 E7        30.19F FOG     WCI  -9
EKALAKA          N/A     -4 -13  65 SE13      30.25F WCI -23
FORSYTH          N/A     -2  -8  78 NE7       30.40S WCI -16
HARLOWTON      MOCLDY     1  -4  80 E8        30.20S WCI -13
LAUREL           N/A      4  -7  60 N7        30.20S WCI  -8
$$

REGIONAL REPORTS...DAKOTAS

CITY           SKY/WX    TMP DP  RH WIND       PRES   REMARKS
WILLISTON      CLOUDY   -15 -20  78 CALM      30.57F
MINOT          CLOUDY    -8 -12  83 W8        30.55S WCI -24
DICKINSON      CLOUDY   -17 -22  78 S5        30.46S
BEACH          MOCLDY   -17 -20  83 CALM      30.48F
CROSBY           N/A    -13 -18  77 W8        30.58S WCI -30
TIOGA            N/A    -15 -18  84 W7        30.53S WCI -31
WATFORD CITY     N/A    -20 -26  76 SW3       30.55F
BISMARCK       CLOUDY    -6 -10  83 CALM      30.59F
GRAND FORKS    CLOUDY     8   2  76 NW8       30.58S WCI  -4
FARGO          CLOUDY     8   2  76 W8        30.59S WCI  -4
BUFFALO SD       N/A     -9 -13  83 NE5       30.32S
RAPID CITY     CLOUDY     2  -5  72 E3        30.36F
$$

REGIONAL REPORTS...WYOMING/IDAHO/WASHINGTON

CITY           SKY/WX    TMP DP  RH WIND       PRES   REMARKS
GILLETTE       CLOUDY    -1  -7  75 NE6       30.16F WCI -13
SHERIDAN       CLOUDY     1  -5  75 NW5       30.21R
BUFFALO WY     CLOUDY    -1  -7  75 N7        30.10F WCI -14
CODY           CLOUDY     0  -5  79 S5        30.10F
YELLOWSTONE LA   N/A      7   5  91 W3        29.96S
IDAHO FALLS    CLOUDY    18  14  84 N5        30.09F
SALMON         CLOUDY    12  10  92 CALM      30.08R
BOISE          CLOUDY    29  24  82 S8        30.09R WCI  21
SPOKANE        CLOUDY    19   5  54 E13       30.10S WCI   6
$$

REGIONAL REPORTS...ALBERTA

CITY           SKY/WX    TMP DP  RH WIND       PRES   REMARKS
EDMONTON       CLOUDY    -9 -18  64 E2        30.54F
CALGARY        CRYSTALS  -6 -13  71 S6        30.33F WCI -18
LETHBRIDGE     FLURRIES  -4  -9  77 NE3       30.41S
MEDICINE HAT   FLURRIES  -9 -15  77 E2        30.51S
WATERTON GATE    N/A     -9 -15  77 E3          N/A
CARDSTON         N/A     -9 -15  77 NW1         N/A
MILK RIVER       N/A     -6  -9  84 E1          N/A
ONEFOUR          N/A     -4  -9  77 E7          N/A  WCI -18
$$

REGIONAL REPORTS...SASKATCHEWAN

CITY           SKY/WX    TMP DP  RH WIND       PRES   REMARKS
SWIFT CURRENT  FLURRIES  -6  -9  84 NE5       30.46F
REGINA         CLEAR    -13 -18  77 NW3       30.57S
SASKATOON      CRYSTALS -13 -18  77 NW5       30.64S
CYPRESS HILLS    N/A    -11 -18  70 SE2         N/A
VAL MARIE        N/A    -13 -18  77 NE3         N/A
ROCKGLEN         N/A     -6  -9  84 N5          N/A
ASSINIBOIA       N/A     -4  -9  77 E3          N/A
$$




USA.gov is the U.S. government's official web portal to all federal, state and local government web resources and services.